Location: Columbia
(38.9520°N, 92.3340°W)
Time: 08:55:10
(UTC-05:00)

Iridium 22 - Visible Passes

Search period start: 27 June 2017 00:00
Search period end: 07 July 2017 00:00
Orbit: 776 x 779 km, 86.4° (Epoch: 26 June)

Date Brightness Start Highest point End Pass type
(mag) Time Alt. Az. Time Alt. Az. Time Alt. Az.
27 Jun 7.4 00:53:23 19° W 00:54:33 20° WNW 00:58:22 10° NNW visible
27 Jun 6.8 22:39:20 22° E 22:40:20 23° E 22:44:23 10° NNE visible
28 Jun 6.5 00:19:47 34° WSW 00:20:47 37° W 00:25:37 10° NNW visible
28 Jun 7.5 22:05:44 11° E 22:07:09 12° ENE 22:09:12 10° NE visible
28 Jun 5.6 23:46:11 56° SW 23:47:10 70° W 23:52:23 10° N visible
29 Jun 5.6 23:12:34 50° SE 23:13:40 63° E 23:18:50 10° N visible
30 Jun 7.8 00:53:01 12° W 00:54:51 14° WNW 00:57:30 10° NW visible
30 Jun 6.4 22:38:56 29° ESE 22:40:17 33° E 22:44:56 10° NNE visible
01 Jul 7.1 00:19:24 22° WSW 00:21:00 26° W 00:25:19 10° NNW visible
01 Jul 7.1 22:05:18 16° ESE 22:07:02 18° E 22:10:30 10° NE visible
01 Jul 6.2 23:45:45 36° SW 23:47:19 47° W 23:52:21 10° N visible
02 Jul 5.4 23:12:06 45° S 23:13:44 89° W 23:18:59 10° N visible
03 Jul 5.8 22:38:26 34° SE 22:40:17 49° E 22:45:17 10° NNE visible
04 Jul 7.7 00:18:53 14° WSW 00:21:16 18° WNW 00:24:46 10° NW visible
04 Jul 6.7 22:04:44 20° ESE 22:06:57 26° E 22:11:13 10° NNE visible
04 Jul 6.9 23:45:11 23° SW 23:47:29 32° W 23:52:10 10° NNW visible
05 Jul 7.4 21:31:05 10° ESE 21:33:44 14° ENE 21:36:23 10° NE visible
05 Jul 5.9 23:11:30 32° SSW 23:13:50 61° W 23:19:00 10° N visible
06 Jul 5.5 22:37:47 31° SSE 22:40:19 72° E 22:45:31 10° N visible
